NOZ982 ENBR-LOWI

Flight info

Callsign NOZ982
Flight time 2h 3m
Altitude 37000
Route TUXIL DCT ZOL DCT ATTUS DCT TABAT M736 AKOSI/N0451F310 M736 RDG/N0452F300 M736 DOSEL/N0454F310 M736 TULSI TULSI3A
Aircraft B38M/M-SDE1FGHILORVWXY/HB1

Departure

Time 2026-05-06 17:50
Airport Bergen Airport, Flesland (ENBR)

Arrival

Time 2026-05-06 19:54
Airport Innsbruck Airport (LOWI)
Time Latitude Longitude Altitude Speed Heading
2026-05-06 17:18 60.28700 5.22914 175 ft 0 kts 80°
2026-05-06 17:18 60.28660 5.22932 175 ft 0 kts 80°
2026-05-06 17:39 60.28658 5.22903 175 ft 4 kts 80°
2026-05-06 17:39 60.28653 5.22850 175 ft 4 kts 80°
2026-05-06 17:40 60.28651 5.22819 175 ft 2 kts 80°
2026-05-06 17:43 60.28653 5.22823 175 ft 0 kts 56°
2026-05-06 17:43 60.28656 5.22824 175 ft 1 kts 15°
2026-05-06 17:44 60.28673 5.22798 174 ft 7 kts 323°
2026-05-06 17:44 60.28681 5.22691 171 ft 12 kts 245°
2026-05-06 17:44 60.28669 5.22613 169 ft 3 kts 263°
2026-05-06 17:44 60.28666 5.22548 168 ft 6 kts 262°
2026-05-06 17:45 60.28679 5.22454 168 ft 8 kts 300°
2026-05-06 17:45 60.28719 5.22346 166 ft 11 kts 339°
2026-05-06 17:45 60.28804 5.22320 165 ft 14 kts 352°
2026-05-06 17:45 60.28905 5.22284 164 ft 16 kts 351°
2026-05-06 17:46 60.29018 5.22247 165 ft 17 kts 351°
2026-05-06 17:46 60.29138 5.22206 165 ft 18 kts 351°
2026-05-06 17:46 60.29267 5.22163 165 ft 20 kts 350°
2026-05-06 17:46 60.29416 5.22113 160 ft 24 kts 351°
2026-05-06 17:47 60.29592 5.22053 152 ft 28 kts 350°
2026-05-06 17:47 60.29787 5.21988 151 ft 25 kts 352°
2026-05-06 17:47 60.29950 5.21934 158 ft 23 kts 350°
2026-05-06 17:47 60.30101 5.21882 165 ft 21 kts 350°
2026-05-06 17:48 60.30241 5.21834 167 ft 21 kts 350°
2026-05-06 17:48 60.30374 5.21786 174 ft 18 kts 350°
2026-05-06 17:48 60.30496 5.21745 178 ft 17 kts 350°
2026-05-06 17:48 60.30606 5.21713 183 ft 15 kts 352°
2026-05-06 17:49 60.30665 5.21586 190 ft 14 kts 259°
2026-05-06 17:49 60.30633 5.21404 185 ft 14 kts 218°
2026-05-06 17:49 60.30585 5.21397 184 ft 0 kts 170°
2026-05-06 17:49 60.30574 5.21401 183 ft 5 kts 170°
2026-05-06 17:50 60.30421 5.21452 174 ft 60 kts 171°
2026-05-06 17:50 60.29730 5.21685 154 ft 140 kts 171°
2026-05-06 17:50 60.28592 5.22078 425 ft 181 kts 174°
2026-05-06 17:50 60.27274 5.22529 1245 ft 201 kts 173°
2026-05-06 17:51 60.25827 5.23050 2055 ft 220 kts 173°
2026-05-06 17:51 60.24258 5.23532 2603 ft 237 kts 174°
2026-05-06 17:51 60.22583 5.24053 3315 ft 246 kts 173°
2026-05-06 17:51 60.20905 5.24595 4336 ft 248 kts 173°
2026-05-06 17:52 60.19145 5.25174 4975 ft 265 kts 173°
2026-05-06 17:52 60.17313 5.25787 5683 ft 271 kts 172°
2026-05-06 17:52 60.15449 5.26419 5971 ft 273 kts 172°
2026-05-06 17:52 60.13576 5.27053 6048 ft 274 kts 172°
2026-05-06 17:53 60.11692 5.27692 6769 ft 272 kts 172°
2026-05-06 17:53 60.09819 5.28324 7704 ft 275 kts 173°
2026-05-06 17:53 60.07897 5.28849 8529 ft 280 kts 175°
2026-05-06 17:53 60.05952 5.29362 9382 ft 285 kts 175°
2026-05-06 17:54 60.03950 5.29897 10069 ft 293 kts 175°
2026-05-06 17:54 60.01897 5.30446 10626 ft 307 kts 176°
2026-05-06 17:54 59.99715 5.31046 10942 ft 327 kts 176°
2026-05-06 17:54 59.97392 5.31676 11290 ft 345 kts 176°
2026-05-06 17:55 59.94971 5.32326 11815 ft 355 kts 177°
2026-05-06 17:55 59.92560 5.32971 12667 ft 355 kts 178°
2026-05-06 17:55 59.90085 5.33629 13422 ft 359 kts 179°
2026-05-06 17:55 59.87602 5.34291 14190 ft 362 kts 179°
2026-05-06 17:56 59.85090 5.34959 14874 ft 365 kts 179°
2026-05-06 17:56 59.82561 5.35630 15597 ft 367 kts 179°
2026-05-06 17:56 59.80013 5.36252 16277 ft 368 kts 182°
2026-05-06 17:56 59.77460 5.36664 16930 ft 371 kts 182°
2026-05-06 17:57 59.74873 5.37095 17630 ft 373 kts 182°
2026-05-06 17:57 59.72312 5.37532 18274 ft 376 kts 182°
2026-05-06 17:57 59.69659 5.37987 18844 ft 379 kts 182°
2026-05-06 17:57 59.67056 5.38434 19367 ft 382 kts 182°
2026-05-06 17:58 59.64391 5.38969 19891 ft 388 kts 180°
2026-05-06 17:58 59.61704 5.39670 20436 ft 390 kts 180°
2026-05-06 17:58 59.58988 5.40360 20957 ft 393 kts 181°
2026-05-06 17:58 59.56262 5.41121 21425 ft 402 kts 175°
2026-05-06 17:59 59.53594 5.43040 22024 ft 414 kts 163°
2026-05-06 17:59 59.50948 5.45325 22460 ft 418 kts 165°
2026-05-06 17:59 59.48261 5.47577 22887 ft 421 kts 164°
2026-05-06 17:59 59.45591 5.49792 23399 ft 423 kts 164°
2026-05-06 18:00 59.42863 5.52041 23842 ft 426 kts 164°
2026-05-06 18:00 59.40123 5.54295 24277 ft 427 kts 165°
2026-05-06 18:00 59.37373 5.56553 24725 ft 428 kts 165°
2026-05-06 18:00 59.34615 5.58812 25176 ft 430 kts 165°
2026-05-06 18:01 59.31850 5.61075 25600 ft 431 kts 165°
2026-05-06 18:01 59.29081 5.63336 26014 ft 433 kts 165°
2026-05-06 18:01 59.26292 5.65610 26426 ft 434 kts 165°
2026-05-06 18:01 59.23529 5.67858 26811 ft 436 kts 165°
2026-05-06 18:02 59.20728 5.70133 27202 ft 437 kts 165°
2026-05-06 18:02 59.17904 5.72422 27523 ft 439 kts 165°
2026-05-06 18:02 59.15071 5.74715 27866 ft 441 kts 165°
2026-05-06 18:02 59.12230 5.77010 28226 ft 443 kts 165°
2026-05-06 18:03 59.09373 5.79314 28583 ft 445 kts 165°
2026-05-06 18:03 59.06515 5.81615 28933 ft 446 kts 165°
2026-05-06 18:03 59.03642 5.83923 29271 ft 448 kts 165°
2026-05-06 18:03 59.00791 5.86210 29596 ft 450 kts 165°
2026-05-06 18:04 58.97886 5.88536 29924 ft 451 kts 165°
2026-05-06 18:04 58.94981 5.90858 30219 ft 453 kts 165°
2026-05-06 18:04 58.92043 5.93203 30461 ft 456 kts 165°
2026-05-06 18:04 58.89105 5.95543 30701 ft 456 kts 165°
2026-05-06 18:05 58.86162 5.97882 30965 ft 458 kts 165°
2026-05-06 18:05 58.83259 6.00185 31259 ft 458 kts 165°
2026-05-06 18:05 58.80306 6.02525 31577 ft 458 kts 165°
2026-05-06 18:05 58.77355 6.04858 31904 ft 458 kts 165°
2026-05-06 18:06 58.74401 6.07189 32209 ft 458 kts 164°
2026-05-06 18:06 58.71445 6.09517 32514 ft 458 kts 164°
2026-05-06 18:06 58.68484 6.11845 32827 ft 458 kts 164°
2026-05-06 18:06 58.65530 6.14163 33122 ft 458 kts 164°
2026-05-06 18:07 58.62569 6.16483 33426 ft 458 kts 164°
2026-05-06 18:07 58.59663 6.18755 33690 ft 458 kts 164°
2026-05-06 18:07 58.56705 6.21064 33962 ft 459 kts 164°
2026-05-06 18:07 58.53753 6.23363 34193 ft 459 kts 164°
2026-05-06 18:08 58.50790 6.25666 34455 ft 457 kts 164°
2026-05-06 18:08 58.47843 6.27956 34787 ft 455 kts 164°
2026-05-06 18:08 58.44900 6.30235 34970 ft 456 kts 164°
2026-05-06 18:08 58.41952 6.32516 35163 ft 457 kts 164°
2026-05-06 18:09 58.39003 6.34792 35324 ft 457 kts 164°
2026-05-06 18:09 58.36096 6.37032 35535 ft 458 kts 164°
2026-05-06 18:09 58.33132 6.39311 35728 ft 458 kts 164°
2026-05-06 18:09 58.30171 6.41586 35886 ft 459 kts 163°
2026-05-06 18:10 58.27214 6.43851 36125 ft 458 kts 163°
2026-05-06 18:10 58.24253 6.46117 36298 ft 459 kts 163°
2026-05-06 18:10 58.21283 6.48384 36477 ft 459 kts 163°
2026-05-06 18:10 58.18320 6.50643 36640 ft 460 kts 163°
2026-05-06 18:11 58.15348 6.52904 36812 ft 460 kts 163°
2026-05-06 18:11 58.12379 6.55159 36965 ft 460 kts 163°
2026-05-06 18:11 58.06451 6.59648 37011 ft 461 kts 163°
2026-05-06 18:12 58.00494 6.64144 36989 ft 460 kts 163°
2026-05-06 18:12 57.94553 6.68610 37002 ft 460 kts 163°
2026-05-06 18:13 57.88628 6.73050 37001 ft 459 kts 163°
2026-05-06 18:13 57.82706 6.77471 37005 ft 457 kts 163°
2026-05-06 18:14 57.76829 6.81844 36999 ft 457 kts 163°
2026-05-06 18:14 57.70914 6.86229 36992 ft 456 kts 163°
2026-05-06 18:15 57.65025 6.90580 37002 ft 456 kts 163°
2026-05-06 18:15 57.59119 6.94928 37006 ft 456 kts 163°
2026-05-06 18:16 57.53205 6.99267 36995 ft 456 kts 163°
2026-05-06 18:16 57.47334 7.03558 36998 ft 456 kts 163°
2026-05-06 18:17 57.41440 7.07853 36992 ft 455 kts 163°
2026-05-06 18:17 57.35530 7.12143 37002 ft 455 kts 163°
2026-05-06 18:18 57.29626 7.16415 36983 ft 455 kts 163°
2026-05-06 18:18 57.23780 7.20630 36998 ft 453 kts 163°
2026-05-06 18:19 57.17914 7.24845 37002 ft 453 kts 163°
2026-05-06 18:19 57.12041 7.29051 37003 ft 451 kts 163°
2026-05-06 18:20 57.06181 7.33233 37001 ft 451 kts 163°
2026-05-06 18:20 57.00361 7.37372 37000 ft 451 kts 163°
2026-05-06 18:21 56.94503 7.41524 37004 ft 451 kts 164°
2026-05-06 18:21 56.88632 7.45672 36986 ft 451 kts 163°
2026-05-06 18:22 56.82811 7.49771 37002 ft 450 kts 163°
2026-05-06 18:22 56.76949 7.53885 37001 ft 450 kts 164°
2026-05-06 18:23 56.71136 7.57950 37001 ft 450 kts 164°
2026-05-06 18:23 56.65283 7.62030 36997 ft 449 kts 164°
2026-05-06 18:24 56.59445 7.66087 36983 ft 448 kts 163°
2026-05-06 18:24 56.53605 7.70130 37000 ft 448 kts 164°
2026-05-06 18:25 56.47828 7.74117 37001 ft 448 kts 164°
2026-05-06 18:25 56.41993 7.78132 37001 ft 448 kts 164°
2026-05-06 18:26 56.36162 7.82130 36999 ft 448 kts 164°
2026-05-06 18:26 56.30322 7.86121 36983 ft 448 kts 164°
2026-05-06 18:27 56.24526 7.90069 36994 ft 448 kts 164°
2026-05-06 18:27 56.18694 7.94029 36997 ft 448 kts 164°
2026-05-06 18:28 56.12862 7.97976 36990 ft 448 kts 164°
2026-05-06 18:28 56.08004 8.01255 36978 ft 447 kts 164°
2026-05-06 18:29 56.02182 8.05171 36966 ft 447 kts 163°
2026-05-06 18:29 55.96386 8.09058 36981 ft 447 kts 163°
2026-05-06 18:30 55.90562 8.12951 36983 ft 447 kts 163°
2026-05-06 18:30 55.84732 8.16836 36971 ft 447 kts 163°
2026-05-06 18:31 55.78913 8.20700 36966 ft 447 kts 163°
2026-05-06 18:31 55.73086 8.24558 36968 ft 447 kts 163°
2026-05-06 18:32 55.67288 8.28384 36963 ft 447 kts 164°
2026-05-06 18:32 55.61454 8.32223 36953 ft 447 kts 164°
2026-05-06 18:33 55.55632 8.36040 36948 ft 447 kts 164°
2026-05-06 18:33 55.49793 8.39857 36945 ft 446 kts 164°
2026-05-06 18:34 55.44004 8.43629 36946 ft 446 kts 163°
2026-05-06 18:34 55.38168 8.47420 36961 ft 446 kts 163°
2026-05-06 18:35 55.32348 8.51189 36955 ft 446 kts 164°
2026-05-06 18:35 55.26506 8.54960 36951 ft 446 kts 164°
2026-05-06 18:36 55.20712 8.58690 36932 ft 446 kts 163°
2026-05-06 18:36 55.14869 8.62437 36932 ft 447 kts 163°
2026-05-06 18:37 55.09032 8.66170 36935 ft 447 kts 163°
2026-05-06 18:37 55.03187 8.69896 36930 ft 446 kts 163°
2026-05-06 18:38 54.97382 8.73585 36933 ft 446 kts 164°
2026-05-06 18:38 54.91541 8.77286 36918 ft 446 kts 163°
2026-05-06 18:39 54.85778 8.81336 36933 ft 447 kts 161°
2026-05-06 18:40 54.77165 8.87391 36921 ft 447 kts 161°
2026-05-06 18:40 54.71395 8.91427 36922 ft 447 kts 161°
2026-05-06 18:41 54.65616 8.95456 36914 ft 447 kts 161°
2026-05-06 18:41 54.59889 8.99435 36918 ft 447 kts 161°
2026-05-06 18:42 54.54112 9.03437 36916 ft 447 kts 161°
2026-05-06 18:42 54.48337 9.07427 36917 ft 447 kts 161°
2026-05-06 18:43 54.42565 9.11401 36915 ft 447 kts 161°
2026-05-06 18:43 54.36800 9.15360 36904 ft 447 kts 161°
2026-05-06 18:44 54.31062 9.19287 36901 ft 447 kts 161°
2026-05-06 18:44 54.25280 9.23232 36896 ft 447 kts 161°
2026-05-06 18:45 54.19498 9.27166 36897 ft 447 kts 161°
2026-05-06 18:45 54.13731 9.31078 36887 ft 447 kts 161°
2026-05-06 18:46 54.07943 9.34992 36901 ft 447 kts 161°
2026-05-06 18:46 54.02161 9.38891 36895 ft 447 kts 161°
2026-05-06 18:47 53.96407 9.42758 36892 ft 447 kts 161°
2026-05-06 18:47 53.90627 9.46632 36817 ft 448 kts 161°
2026-05-06 18:48 53.84869 9.50480 36919 ft 443 kts 161°
2026-05-06 18:48 53.79096 9.54326 36883 ft 446 kts 161°
2026-05-06 18:49 53.73354 9.58140 36891 ft 446 kts 161°
2026-05-06 18:49 53.67576 9.61967 36888 ft 446 kts 161°
2026-05-06 18:50 53.61788 9.65789 36885 ft 446 kts 161°
2026-05-06 18:50 53.56038 9.69575 36882 ft 445 kts 162°
2026-05-06 18:51 53.50260 9.73368 36885 ft 445 kts 162°
2026-05-06 18:51 53.44495 9.77142 36883 ft 445 kts 162°
2026-05-06 18:52 53.38723 9.80909 36883 ft 445 kts 162°
2026-05-06 18:52 53.32939 9.84674 36865 ft 445 kts 162°
2026-05-06 18:53 53.27200 9.88397 36880 ft 445 kts 162°
2026-05-06 18:53 53.21429 9.92131 36875 ft 445 kts 162°
2026-05-06 18:54 53.15645 9.95862 36874 ft 445 kts 162°
2026-05-06 18:54 53.09859 9.99584 36865 ft 445 kts 162°
2026-05-06 18:55 53.04114 10.03269 36858 ft 445 kts 162°
2026-05-06 18:55 52.98336 10.06964 36857 ft 445 kts 162°
2026-05-06 18:56 52.92551 10.10654 36854 ft 445 kts 162°
2026-05-06 18:56 52.86757 10.14338 36839 ft 445 kts 162°
2026-05-06 18:57 52.81020 10.17976 36845 ft 444 kts 162°
2026-05-06 18:57 52.75250 10.21624 36855 ft 444 kts 162°
2026-05-06 18:58 52.69472 10.25267 36836 ft 444 kts 162°
2026-05-06 18:58 52.63691 10.28902 36836 ft 444 kts 162°
2026-05-06 18:59 52.53219 10.35487 36829 ft 443 kts 163°
2026-05-06 18:59 52.41678 10.42634 36829 ft 443 kts 163°
2026-05-06 19:00 52.30277 10.49701 36816 ft 443 kts 162°
2026-05-06 19:00 52.18756 10.56804 36824 ft 441 kts 163°
2026-05-06 19:01 52.07255 10.63853 36820 ft 441 kts 163°
2026-05-06 19:01 51.95745 10.70871 36808 ft 441 kts 163°
2026-05-06 19:02 51.84281 10.77807 36790 ft 440 kts 163°
2026-05-06 19:02 51.72865 10.84679 36798 ft 440 kts 163°
2026-05-06 19:03 51.61390 10.91557 36800 ft 440 kts 163°
2026-05-06 19:03 51.53511 10.96270 36818 ft 440 kts 163°
2026-05-06 19:04 51.47790 10.99667 36800 ft 436 kts 163°
2026-05-06 19:04 51.42137 11.03020 36788 ft 436 kts 163°
2026-05-06 19:05 51.36448 11.06385 36761 ft 436 kts 163°
2026-05-06 19:05 51.30768 11.09736 36789 ft 434 kts 163°
2026-05-06 19:06 51.25101 11.13070 36781 ft 434 kts 164°
2026-05-06 19:06 51.19465 11.16378 36781 ft 434 kts 164°
2026-05-06 19:07 51.13803 11.19693 36777 ft 434 kts 164°
2026-05-06 19:07 51.08125 11.23007 36779 ft 434 kts 164°
2026-05-06 19:08 51.02456 11.26308 36774 ft 433 kts 164°
2026-05-06 19:08 50.96798 11.29595 36781 ft 432 kts 164°
2026-05-06 19:09 50.91197 11.32841 36789 ft 432 kts 164°
2026-05-06 19:09 50.85570 11.36094 36409 ft 426 kts 165°
2026-05-06 19:09 50.82777 11.37704 35686 ft 428 kts 165°
2026-05-06 19:10 50.79982 11.39314 35071 ft 426 kts 165°
2026-05-06 19:10 50.77207 11.40913 34835 ft 424 kts 165°
2026-05-06 19:10 50.74421 11.42515 34801 ft 426 kts 165°
2026-05-06 19:11 50.68845 11.45714 34792 ft 426 kts 165°
2026-05-06 19:11 50.63315 11.48879 34784 ft 426 kts 165°
2026-05-06 19:12 50.57730 11.52067 34761 ft 426 kts 165°
2026-05-06 19:12 50.52222 11.55643 34786 ft 428 kts 162°
2026-05-06 19:13 50.46661 11.58875 34798 ft 420 kts 171°
2026-05-06 19:13 50.41031 11.61301 34791 ft 423 kts 169°
2026-05-06 19:14 50.35353 11.63881 34796 ft 425 kts 169°
2026-05-06 19:14 50.29663 11.66483 34800 ft 426 kts 169°
2026-05-06 19:15 50.23976 11.69078 34802 ft 424 kts 169°
2026-05-06 19:15 50.18346 11.71641 34801 ft 424 kts 169°
2026-05-06 19:16 50.12671 11.74218 34800 ft 424 kts 169°
2026-05-06 19:16 50.07958 11.76353 34801 ft 424 kts 169°
2026-05-06 19:17 50.02284 11.78918 34796 ft 422 kts 169°
2026-05-06 19:17 49.98550 11.80602 34664 ft 422 kts 169°
2026-05-06 19:17 49.96647 11.81459 34456 ft 420 kts 169°
2026-05-06 19:17 49.93858 11.82714 34138 ft 418 kts 169°
2026-05-06 19:18 49.91098 11.83955 33808 ft 417 kts 169°
2026-05-06 19:18 49.88309 11.85208 33432 ft 417 kts 169°
2026-05-06 19:18 49.85515 11.86462 33026 ft 417 kts 169°
2026-05-06 19:18 49.82725 11.87712 32656 ft 417 kts 169°
2026-05-06 19:19 49.79927 11.88964 32281 ft 418 kts 169°
2026-05-06 19:19 49.77132 11.90212 31922 ft 417 kts 169°
2026-05-06 19:19 49.74335 11.91460 31776 ft 418 kts 169°
2026-05-06 19:20 49.68731 11.93956 31779 ft 421 kts 169°
2026-05-06 19:20 49.63146 11.96439 31786 ft 420 kts 169°
2026-05-06 19:21 49.57520 11.98933 31782 ft 420 kts 169°
2026-05-06 19:21 49.51914 12.01413 31782 ft 418 kts 169°
2026-05-06 19:22 49.46321 12.03881 31800 ft 419 kts 169°
2026-05-06 19:22 49.40749 12.06334 31791 ft 418 kts 169°
2026-05-06 19:23 49.35150 12.08793 31790 ft 418 kts 169°
2026-05-06 19:23 49.29546 12.11249 31802 ft 419 kts 169°
2026-05-06 19:24 49.23944 12.13697 31805 ft 419 kts 169°
2026-05-06 19:24 49.18324 12.16148 31815 ft 419 kts 169°
2026-05-06 19:25 49.12742 12.18576 31816 ft 419 kts 169°
2026-05-06 19:25 49.07122 12.21016 31789 ft 422 kts 168°
2026-05-06 19:26 49.01444 12.23474 31804 ft 424 kts 168°
2026-05-06 19:26 48.95772 12.25925 31815 ft 424 kts 168°
2026-05-06 19:27 48.90147 12.28350 31438 ft 418 kts 168°
2026-05-06 19:27 48.87336 12.29560 30588 ft 422 kts 167°
2026-05-06 19:27 48.84495 12.30781 29632 ft 427 kts 167°
2026-05-06 19:27 48.81609 12.32019 28554 ft 433 kts 168°
2026-05-06 19:28 48.78694 12.33267 27553 ft 437 kts 167°
2026-05-06 19:28 48.75764 12.34522 26584 ft 441 kts 167°
2026-05-06 19:28 48.72800 12.35790 25641 ft 444 kts 167°
2026-05-06 19:28 48.69809 12.37067 24696 ft 448 kts 167°
2026-05-06 19:29 48.66845 12.38332 24097 ft 444 kts 167°
2026-05-06 19:29 48.63827 12.39617 23921 ft 446 kts 167°
2026-05-06 19:29 48.60866 12.40877 23811 ft 448 kts 167°
2026-05-06 19:29 48.57860 12.42154 23845 ft 450 kts 167°
2026-05-06 19:30 48.54841 12.43436 23850 ft 450 kts 167°
2026-05-06 19:30 48.51836 12.44710 23847 ft 450 kts 167°
2026-05-06 19:30 48.48797 12.45852 23849 ft 448 kts 174°
2026-05-06 19:30 48.45710 12.45893 23861 ft 442 kts 190°
2026-05-06 19:31 48.42743 12.44723 23858 ft 440 kts 203°
2026-05-06 19:31 48.40076 12.42486 23871 ft 439 kts 216°
2026-05-06 19:31 48.35288 12.36950 23864 ft 431 kts 219°
2026-05-06 19:32 48.33021 12.34156 23868 ft 412 kts 219°
2026-05-06 19:32 48.30843 12.31434 23882 ft 406 kts 219°
2026-05-06 19:32 48.28693 12.28723 23863 ft 404 kts 220°
2026-05-06 19:32 48.26542 12.26000 23863 ft 404 kts 220°
2026-05-06 19:33 48.24394 12.23277 23868 ft 404 kts 220°
2026-05-06 19:33 48.22243 12.20553 23868 ft 404 kts 220°
2026-05-06 19:33 48.20094 12.17835 23870 ft 404 kts 220°
2026-05-06 19:33 48.17944 12.15118 23877 ft 404 kts 220°
2026-05-06 19:34 48.15790 12.12399 23873 ft 404 kts 220°
2026-05-06 19:34 48.13643 12.09690 23875 ft 404 kts 220°
2026-05-06 19:34 48.11492 12.06982 23876 ft 404 kts 219°
2026-05-06 19:34 48.09345 12.04289 23854 ft 401 kts 219°
2026-05-06 19:35 48.07203 12.01637 23170 ft 400 kts 219°
2026-05-06 19:35 48.05086 11.99015 22578 ft 398 kts 219°
2026-05-06 19:35 48.02966 11.96380 21959 ft 397 kts 219°
2026-05-06 19:35 48.00846 11.93728 21339 ft 396 kts 219°
2026-05-06 19:36 47.98753 11.91113 20922 ft 390 kts 219°
2026-05-06 19:36 47.96682 11.88522 20369 ft 388 kts 219°
2026-05-06 19:36 47.94624 11.85946 19981 ft 382 kts 219°
2026-05-06 19:36 47.92590 11.83399 19903 ft 383 kts 219°
2026-05-06 19:37 47.90558 11.80856 19870 ft 384 kts 219°
2026-05-06 19:37 47.88528 11.78313 19418 ft 381 kts 219°
2026-05-06 19:37 47.86496 11.75769 18879 ft 380 kts 219°
2026-05-06 19:37 47.84509 11.73278 18426 ft 377 kts 219°
2026-05-06 19:38 47.82508 11.70778 17950 ft 374 kts 219°
2026-05-06 19:38 47.80525 11.68320 17512 ft 369 kts 219°
2026-05-06 19:38 47.78558 11.65891 17045 ft 365 kts 219°
2026-05-06 19:38 47.76612 11.63496 16583 ft 361 kts 219°
2026-05-06 19:39 47.74672 11.61115 16048 ft 361 kts 219°
2026-05-06 19:39 47.72745 11.58765 15595 ft 358 kts 219°
2026-05-06 19:39 47.70831 11.56440 15159 ft 355 kts 219°
2026-05-06 19:39 47.68929 11.54138 14738 ft 351 kts 219°
2026-05-06 19:40 47.67054 11.51821 14203 ft 351 kts 224°
2026-05-06 19:40 47.65654 11.48901 13700 ft 350 kts 244°
2026-05-06 19:40 47.64789 11.45523 13249 ft 348 kts 249°
2026-05-06 19:40 47.64017 11.42178 12860 ft 344 kts 249°
2026-05-06 19:41 47.63236 11.38802 12846 ft 348 kts 249°
2026-05-06 19:41 47.62439 11.35404 12866 ft 349 kts 249°
2026-05-06 19:41 47.61643 11.32013 12851 ft 349 kts 249°
2026-05-06 19:41 47.60839 11.28614 12876 ft 349 kts 249°
2026-05-06 19:42 47.60039 11.25218 12871 ft 349 kts 249°
2026-05-06 19:42 47.59242 11.21825 12877 ft 349 kts 249°
2026-05-06 19:42 47.58451 11.18473 12844 ft 349 kts 249°
2026-05-06 19:42 47.57644 11.15035 12845 ft 358 kts 249°
2026-05-06 19:43 47.56813 11.11526 12847 ft 363 kts 249°
2026-05-06 19:43 47.55973 11.07987 12849 ft 365 kts 249°
2026-05-06 19:43 47.55138 11.04463 12333 ft 363 kts 249°
2026-05-06 19:43 47.54299 11.00933 11775 ft 362 kts 249°
2026-05-06 19:44 47.53468 10.97423 11473 ft 358 kts 249°
2026-05-06 19:44 47.52637 10.93931 11381 ft 363 kts 249°
2026-05-06 19:44 47.51804 10.90432 11393 ft 365 kts 249°
2026-05-06 19:44 47.50972 10.86911 11387 ft 363 kts 249°
2026-05-06 19:45 47.49914 10.83542 11319 ft 360 kts 233°
2026-05-06 19:45 47.48185 10.80873 11379 ft 362 kts 220°
2026-05-06 19:45 47.46254 10.78503 11249 ft 358 kts 219°
2026-05-06 19:45 47.44320 10.76150 10685 ft 358 kts 219°
2026-05-06 19:46 47.42418 10.73803 10538 ft 357 kts 219°
2026-05-06 19:46 47.40499 10.71454 10503 ft 359 kts 219°
2026-05-06 19:46 47.38548 10.69136 10453 ft 359 kts 213°
2026-05-06 19:46 47.36304 10.67706 10472 ft 358 kts 193°
2026-05-06 19:47 47.33820 10.67535 10482 ft 361 kts 173°
2026-05-06 19:47 47.31454 10.68655 10476 ft 353 kts 153°
2026-05-06 19:47 47.29591 10.70870 10442 ft 342 kts 131°
2026-05-06 19:47 47.28386 10.73788 10488 ft 328 kts 114°
2026-05-06 19:48 47.27974 10.77032 10444 ft 320 kts 90°
2026-05-06 19:48 47.28462 10.80138 10612 ft 304 kts 69°
2026-05-06 19:48 47.29126 10.83019 10532 ft 291 kts 81°
2026-05-06 19:48 47.29438 10.85891 10327 ft 278 kts 85°
2026-05-06 19:49 47.29662 10.88666 10032 ft 269 kts 86°
2026-05-06 19:49 47.29833 10.91351 9780 ft 257 kts 87°
2026-05-06 19:49 47.29967 10.93897 9487 ft 247 kts 89°
2026-05-06 19:49 47.30083 10.96343 9143 ft 232 kts 89°
2026-05-06 19:50 47.30186 10.98688 8616 ft 227 kts 90°
2026-05-06 19:50 47.30279 11.01005 8006 ft 226 kts 89°
2026-05-06 19:50 47.30368 11.03305 7436 ft 223 kts 88°
2026-05-06 19:50 47.30452 11.05524 7171 ft 205 kts 88°
2026-05-06 19:51 47.30515 11.07607 7152 ft 203 kts 94°
2026-05-06 19:51 47.30158 11.09587 7090 ft 200 kts 113°
2026-05-06 19:51 47.29643 11.11504 7180 ft 203 kts 113°
2026-05-06 19:51 47.29121 11.13399 7488 ft 213 kts 114°
2026-05-06 19:52 47.28488 11.15644 6955 ft 261 kts 113°
2026-05-06 19:52 47.27711 11.18288 6085 ft 292 kts 114°
2026-05-06 19:52 47.26737 11.21064 4341 ft 300 kts 120°
2026-05-06 19:52 47.25787 11.23577 3309 ft 257 kts 114°
2026-05-06 19:53 47.25422 11.25905 2836 ft 214 kts 94°
2026-05-06 19:53 47.25437 11.27938 2469 ft 185 kts 87°
2026-05-06 19:53 47.25577 11.29646 2333 ft 152 kts 89°
2026-05-06 19:53 47.25683 11.31061 2199 ft 128 kts 91°
2026-05-06 19:54 47.25807 11.32378 2029 ft 127 kts 90°
2026-05-06 19:54 47.25940 11.33650 1905 ft 119 kts 85°
2026-05-06 19:54 47.26015 11.34354 1910 ft 30 kts 81°
2026-05-06 19:54 47.26051 11.34683 1908 ft 35 kts 82°
2026-05-06 19:55 47.26089 11.35058 1909 ft 34 kts 79°
2026-05-06 19:55 47.26069 11.35257 1905 ft 16 kts 168°
2026-05-06 19:55 47.25961 11.35284 1900 ft 9 kts 169°
2026-05-06 19:55 47.25911 11.35289 1909 ft 1 kts 185°
2026-05-06 19:56 47.25897 11.35284 1909 ft 3 kts 192°
2026-05-06 19:56 47.25874 11.35281 1909 ft 4 kts 181°
2026-05-06 19:56 47.25852 11.35285 1899 ft 0 kts 169°
2026-05-06 19:56 47.25848 11.35287 1904 ft 0 kts 169°